Content
SEND FEEDBACK

Daily
Averages
Monthly
Summary
United States of America

CARY, NORTH CAROLINA


Home > North America > United States > North Carolina
Elevation: 385 feet     Latitude: 35 44N     Longitude: 078 41W

WEATHER
 
SELECT A DAY
Number of Records: 196,824;   Date Range: 1/1/95 - 11/26/14
 
SHARE

PRINT THIS DATA

[ ← Previous Day ]
WEATHER ALMANAC - DECEMBER 7, 2013
[ Next Day → ]
[ °C ]   °F
Weather ElementAverageHighLow
Temperature48.3 °F69.8 °F (1:51 am)42.1 °F (11:51 pm)
Dewpoint41.4 °F62.6 °F (1:51 am)30 °F (11:51 pm)
Humidity77.6 %93 % (3:51 am)62 % (11:51 pm)
Barometer30.29 in30.46 in (9:51 pm)30.01 in (1:51 am)
Wind Speed10.8 mph16.1 mph (2:51 am)
Wind Gust24.2 mph (9:51 am)
Weather ElementAverage
Visibility9.6 mi
Wind DirectionENE (62 °)

Weather ElementTotal
Precipitation0.11 in
Heating Degree Days9.1 (Base 65)
Growing Degree Days6 (Base 50)
Averaged from 25 records on December 7, 2013
WEATHER CONDITIONS BREAKOUT
WIND DIRECTION BREAKOUT
WEATHER BY HOUR - DECEMBER 7, 2013
[ °C ]   °F
Local TimeTemperatureDewpointHumidityBarometerVisibilityWind DirectionWind SpeedGust SpeedPrecipitationEventsConditions
1:51 AM69.8 °F62.6 °F78 %30.01 in10.0 miSW (220°)15.0 mphOvercast
2:51 AM69.8 °F62.6 °F78 %30.01 in10.0 miSW (230°)16.1 mph23.0 mphOvercast
3:19 AM69.8 °F62.6 °F78 %30.04 in10.0 miWest (280°)5.8 mphOvercast
3:51 AM59.0 °F57.0 °F93 %30.05 in6.0 miNNE (20°)8.1 mph0.00 inRainLight Rain
4:51 AM50.0 °F46.9 °F89 %30.11 in10.0 miNorth (10°)10.4 mph19.6 mph0.07 inOvercast
5:51 AM45.0 °F43.0 °F93 %30.17 in4.0 miNorth (10°)8.1 mph17.3 mph0.01 inRainLight Rain
6:51 AM44.1 °F41.0 °F89 %30.21 in10.0 miNE (40°)12.7 mph21.9 mph0.01 inRainLight Rain
7:51 AM43.0 °F41.0 °F93 %30.25 in10.0 miNNE (30°)10.4 mph18.4 mph0.02 inOvercast
8:51 AM43.0 °F41.0 °F93 %30.29 in10.0 miNE (40°)11.5 mph0.00 inOvercast
9:33 AM42.8 °F39.2 °F87 %30.32 in10.0 miNNE (30°)11.5 mph20.7 mphOvercast
9:51 AM43.0 °F39.0 °F86 %30.32 in10.0 miNNE (30°)13.8 mph24.2 mphOvercast
10:51 AM44.1 °F39.0 °F82 %30.34 in10.0 miNE (50°)10.4 mphOvercast
11:51 AM45.0 °F39.0 °F80 %30.34 in10.0 miNE (50°)10.4 mphOvercast
12:51 PM46.0 °F37.9 °F73 %30.32 in10.0 miNE (40°)9.2 mphOvercast
1:51 PM46.0 °F37.9 °F73 %30.31 in10.0 miNNE (30°)9.2 mph19.6 mphOvercast
2:51 PM46.9 °F37.9 °F71 %30.32 in10.0 miNE (40°)9.2 mph16.1 mphOvercast
3:51 PM46.9 °F37.0 °F68 %30.34 in10.0 miNNE (20°)11.5 mph18.4 mphOvercast
4:51 PM46.0 °F37.0 °F71 %30.36 in10.0 miNNE (20°)6.9 mphOvercast
5:51 PM46.0 °F36.0 °F68 %30.38 in10.0 miNE (50°)10.4 mphOvercast
6:51 PM45.0 °F36.0 °F71 %30.41 in10.0 miNE (50°)12.7 mphOvercast
7:51 PM45.0 °F35.1 °F68 %30.43 in10.0 miNE (40°)12.7 mphOvercast
8:51 PM44.1 °F33.1 °F65 %30.45 in10.0 miNE (50°)12.7 mphOvercast
9:51 PM43.0 °F32.0 °F65 %30.46 in10.0 miENE (60°)10.4 mph20.7 mphOvercast
10:51 PM43.0 °F32.0 °F65 %30.46 in10.0 miENE (60°)11.5 mphOvercast
11:51 PM42.1 °F30.0 °F62 %30.46 in10.0 miNE (50°)9.2 mph20.7 mphOvercast
Hourly data recorded from KRDU, located miles away from Cary, North Carolina







STORIES FROM OUR PARTNERS